Time,TemperatureF,DewpointF,PressureIn,WindDirection,WindDirectionDegrees,WindSpeedMPH,WindSpeedGustMPH,Humidity,HourlyPrecipIn,Conditions,Clouds,dailyrainin,SoftwareType,DateUTC
2013-07-04 00:01:00,75.9,70.3,29.97,SSE,150,0.0,0.0,83,0.00,,,0.00,meteohub,2013-07-04 04:01:00,
2013-07-04 00:02:00,75.9,70.3,29.97,SSE,150,0.0,0.0,83,0.00,,,0.00,meteohub,2013-07-04 04:02:00,
2013-07-04 00:07:00,75.9,70.3,29.97,SSE,150,0.0,0.0,83,0.00,,,0.00,meteohub,2013-07-04 04:07:00,
2013-07-04 00:08:00,76.1,70.5,29.97,SSE,150,0.0,0.0,83,0.00,,,0.00,meteohub,2013-07-04 04:08:00,
2013-07-04 00:13:00,75.9,70.3,29.97,SSE,150,0.0,0.0,83,0.00,,,0.00,meteohub,2013-07-04 04:13:00,
2013-07-04 00:18:00,75.9,70.3,29.97,SSE,150,0.0,0.0,83,0.00,,,0.00,meteohub,2013-07-04 04:18:00,
2013-07-04 00:23:00,75.9,70.3,29.97,SSE,150,0.0,0.0,83,0.00,,,0.00,meteohub,2013-07-04 04:23:00,
2013-07-04 00:28:00,75.7,70.5,29.97,SSE,150,0.0,0.0,84,0.00,,,0.00,meteohub,2013-07-04 04:28:00,
2013-07-04 00:33:00,75.7,70.5,29.97,SSE,150,0.0,0.0,84,0.00,,,0.00,meteohub,2013-07-04 04:33:00,
2013-07-04 00:38:00,75.6,70.3,29.97,SSE,150,0.0,0.0,84,0.00,,,0.00,meteohub,2013-07-04 04:38:00,
2013-07-04 00:43:00,75.6,70.7,29.97,SSE,150,0.0,0.0,85,0.00,,,0.00,meteohub,2013-07-04 04:43:00,
2013-07-04 00:48:00,75.4,70.5,29.97,SSE,150,0.0,0.0,85,0.00,,,0.00,meteohub,2013-07-04 04:48:00,
2013-07-04 00:53:00,75.4,70.5,29.96,SSE,150,0.0,0.0,85,0.00,,,0.00,meteohub,2013-07-04 04:53:00,
2013-07-04 00:58:00,75.4,70.5,29.97,SSE,150,0.0,0.0,85,0.00,,,0.00,meteohub,2013-07-04 04:58:00,
2013-07-04 01:03:00,75.4,70.5,29.96,SSE,150,0.0,0.0,85,0.00,,,0.00,meteohub,2013-07-04 05:03:00,
2013-07-04 01:08:00,75.4,70.5,29.96,SSE,150,0.0,0.0,85,0.00,,,0.00,meteohub,2013-07-04 05:08:00,
2013-07-04 01:13:00,75.4,70.5,29.96,SSE,150,0.0,0.0,85,0.00,,,0.00,meteohub,2013-07-04 05:13:00,
2013-07-04 01:18:00,75.4,70.5,29.96,SSE,150,0.0,0.0,85,0.00,,,0.00,meteohub,2013-07-04 05:18:00,
2013-07-04 01:23:00,75.2,70.3,29.96,SSE,150,0.0,0.0,85,0.00,,,0.00,meteohub,2013-07-04 05:23:00,
2013-07-04 01:28:00,75.0,70.2,29.96,SSE,150,0.0,4.0,85,0.00,,,0.00,meteohub,2013-07-04 05:28:00,
2013-07-04 01:33:00,75.0,70.2,29.96,SSE,150,0.0,4.0,85,0.00,,,0.00,meteohub,2013-07-04 05:33:00,
2013-07-04 01:39:00,74.8,70.3,29.96,SSE,150,0.0,0.0,86,0.00,,,0.00,meteohub,2013-07-04 05:39:00,
2013-07-04 01:44:00,74.8,70.3,29.96,SSE,150,0.0,0.0,86,0.00,,,0.00,meteohub,2013-07-04 05:44:00,
2013-07-04 01:49:00,74.8,70.3,29.96,SSE,150,0.0,0.0,86,0.00,,,0.00,meteohub,2013-07-04 05:49:00,
2013-07-04 01:54:00,74.8,70.3,29.96,SSE,150,0.0,0.0,86,0.00,,,0.00,meteohub,2013-07-04 05:54:00,
2013-07-04 01:59:00,74.7,70.2,29.96,SSE,150,0.0,0.0,86,0.00,,,0.00,meteohub,2013-07-04 05:59:00,
2013-07-04 02:04:00,74.7,70.2,29.96,SSE,150,0.0,0.0,86,0.00,,,0.00,meteohub,2013-07-04 06:04:00,
2013-07-04 02:09:00,74.7,70.2,29.96,SSE,150,0.0,0.0,86,0.00,,,0.00,meteohub,2013-07-04 06:09:00,
2013-07-04 02:14:00,74.5,70.0,29.96,SSE,150,0.0,0.0,86,0.00,,,0.00,meteohub,2013-07-04 06:14:00,
2013-07-04 02:19:00,74.5,70.0,29.95,SSE,150,0.0,0.0,86,0.00,,,0.00,meteohub,2013-07-04 06:19:00,
2013-07-04 02:24:00,74.5,70.3,29.95,SSE,150,0.0,0.0,87,0.00,,,0.00,meteohub,2013-07-04 06:24:00,
2013-07-04 02:29:00,74.3,70.2,29.95,SSE,150,0.0,0.0,87,0.00,,,0.00,meteohub,2013-07-04 06:29:00,
2013-07-04 02:31:00,74.3,70.2,29.95,SSE,150,0.0,0.0,87,0.00,,,0.00,meteohub,2013-07-04 06:31:00,
2013-07-04 02:36:00,74.1,70.0,29.95,SSE,150,0.0,0.0,87,0.00,,,0.00,meteohub,2013-07-04 06:36:00,
2013-07-04 02:41:00,74.1,70.0,29.94,SSE,150,0.0,0.0,87,0.00,,,0.00,meteohub,2013-07-04 06:41:00,
2013-07-04 02:46:00,74.1,70.0,29.94,SSE,150,0.0,0.0,87,0.00,,,0.00,meteohub,2013-07-04 06:46:00,
2013-07-04 02:51:00,74.1,70.0,29.94,SSE,150,0.0,0.0,87,0.00,,,0.00,meteohub,2013-07-04 06:51:00,
2013-07-04 02:56:00,74.1,70.0,29.94,SSE,150,0.0,0.0,87,0.00,,,0.00,meteohub,2013-07-04 06:56:00,
2013-07-04 03:01:00,74.1,70.0,29.95,SSE,150,0.0,1.0,87,0.00,,,0.00,meteohub,2013-07-04 07:01:00,
2013-07-04 03:06:00,74.1,70.0,29.94,SSE,150,0.0,1.0,87,0.00,,,0.00,meteohub,2013-07-04 07:06:00,
2013-07-04 03:11:00,74.1,70.0,29.95,SSE,150,0.0,1.0,87,0.00,,,0.00,meteohub,2013-07-04 07:11:00,
2013-07-04 03:16:00,74.1,70.0,29.94,SSE,150,0.0,0.0,87,0.00,,,0.00,meteohub,2013-07-04 07:16:00,
2013-07-04 03:21:00,73.9,69.8,29.94,SSE,150,0.0,1.0,87,0.00,,,0.00,meteohub,2013-07-04 07:21:00,
2013-07-04 03:26:00,73.9,69.8,29.94,SSE,150,0.0,1.0,87,0.00,,,0.00,meteohub,2013-07-04 07:26:00,
2013-07-04 03:31:00,73.9,69.8,29.94,SSE,150,0.0,1.0,87,0.00,,,0.00,meteohub,2013-07-04 07:31:00,
2013-07-04 03:36:00,73.9,69.8,29.94,SSE,150,0.0,0.0,87,0.00,,,0.00,meteohub,2013-07-04 07:36:00,
2013-07-04 03:41:00,73.8,69.6,29.94,SSE,150,0.0,0.0,87,0.00,,,0.00,meteohub,2013-07-04 07:41:00,
2013-07-04 03:46:00,73.8,69.6,29.94,SSE,150,0.0,0.0,87,0.00,,,0.00,meteohub,2013-07-04 07:46:00,
2013-07-04 03:51:00,73.8,69.6,29.94,SSE,150,0.0,0.0,87,0.00,,,0.00,meteohub,2013-07-04 07:51:00,
2013-07-04 03:57:00,73.8,69.6,29.94,SSE,150,0.0,0.0,87,0.00,,,0.00,meteohub,2013-07-04 07:57:00,
2013-07-04 04:02:00,73.6,69.8,29.94,SSE,150,0.0,0.0,88,0.00,,,0.00,meteohub,2013-07-04 08:02:00,
2013-07-04 04:07:00,73.6,69.8,29.94,SSE,150,0.0,0.0,88,0.00,,,0.00,meteohub,2013-07-04 08:07:00,
2013-07-04 04:12:00,73.4,69.6,29.94,SSE,150,0.0,0.0,88,0.00,,,0.00,meteohub,2013-07-04 08:12:00,
2013-07-04 04:17:00,73.2,69.4,29.94,SSE,150,0.0,0.0,88,0.00,,,0.00,meteohub,2013-07-04 08:17:00,
2013-07-04 04:22:00,73.2,69.8,29.94,SSE,150,0.0,1.0,89,0.00,,,0.00,meteohub,2013-07-04 08:22:00,
2013-07-04 04:27:00,73.2,69.8,29.94,SSE,150,0.0,2.0,89,0.00,,,0.00,meteohub,2013-07-04 08:27:00,
2013-07-04 04:32:00,73.0,69.6,29.93,SSE,150,0.0,2.0,89,0.00,,,0.00,meteohub,2013-07-04 08:32:00,
2013-07-04 04:37:00,73.0,69.6,29.93,SSE,150,0.0,2.0,89,0.00,,,0.00,meteohub,2013-07-04 08:37:00,
2013-07-04 04:42:00,73.0,69.6,29.93,SSE,150,0.0,2.0,89,0.00,,,0.00,meteohub,2013-07-04 08:42:00,
2013-07-04 04:47:00,73.0,69.6,29.93,SSE,150,0.0,2.0,89,0.00,,,0.00,meteohub,2013-07-04 08:47:00,
2013-07-04 04:52:00,72.9,69.8,29.93,SSE,150,0.0,4.0,90,0.00,,,0.00,meteohub,2013-07-04 08:52:00,
2013-07-04 04:57:00,72.9,69.8,29.94,SSE,150,0.0,4.0,90,0.00,,,0.00,meteohub,2013-07-04 08:57:00,
2013-07-04 05:02:00,72.9,69.8,29.94,SSE,150,1.0,4.0,90,0.00,,,0.00,meteohub,2013-07-04 09:02:00,
2013-07-04 05:07:00,72.7,69.6,29.94,SSE,150,0.0,4.0,90,0.00,,,0.00,meteohub,2013-07-04 09:07:00,
2013-07-04 05:12:00,72.7,69.6,29.94,SSE,150,0.0,2.0,90,0.00,,,0.00,meteohub,2013-07-04 09:12:00,
2013-07-04 05:17:00,72.7,69.6,29.94,SSE,150,0.0,4.0,90,0.00,,,0.00,meteohub,2013-07-04 09:17:00,
2013-07-04 05:22:00,72.5,69.4,29.93,SSE,150,0.0,4.0,90,0.00,,,0.00,meteohub,2013-07-04 09:22:00,
2013-07-04 05:27:00,72.3,69.3,29.93,SSE,150,0.0,4.0,90,0.00,,,0.00,meteohub,2013-07-04 09:27:00,
2013-07-04 05:32:00,72.3,69.6,29.93,SSE,150,0.0,2.0,91,0.00,,,0.00,meteohub,2013-07-04 09:32:00,
2013-07-04 05:37:00,72.3,69.6,29.93,SSE,150,0.0,1.0,91,0.00,,,0.00,meteohub,2013-07-04 09:37:00,
2013-07-04 05:42:00,72.3,69.6,29.93,SSE,150,0.0,1.0,91,0.00,,,0.00,meteohub,2013-07-04 09:42:00,
2013-07-04 05:47:00,72.1,69.4,29.94,SSE,150,0.0,1.0,91,0.00,,,0.00,meteohub,2013-07-04 09:47:00,
2013-07-04 05:52:00,72.1,69.4,29.93,SSE,150,0.0,0.0,91,0.00,,,0.00,meteohub,2013-07-04 09:52:00,
2013-07-04 05:57:00,72.1,69.4,29.94,SSE,150,0.0,0.0,91,0.00,,,0.00,meteohub,2013-07-04 09:57:00,
2013-07-04 06:02:00,72.1,69.4,29.94,SSE,150,0.0,0.0,91,0.00,,,0.00,meteohub,2013-07-04 10:02:00,
2013-07-04 06:07:00,72.1,69.4,29.94,SSE,150,0.0,0.0,91,0.00,,,0.00,meteohub,2013-07-04 10:07:00,
2013-07-04 06:12:00,72.1,69.4,29.95,SSE,150,0.0,0.0,91,0.00,,,0.00,meteohub,2013-07-04 10:12:00,
2013-07-04 06:17:00,72.1,69.4,29.95,SSE,150,0.0,0.0,91,0.00,,,0.00,meteohub,2013-07-04 10:17:00,
2013-07-04 06:22:00,72.1,69.4,29.95,SSE,150,0.0,0.0,91,0.00,,,0.00,meteohub,2013-07-04 10:22:00,
2013-07-04 06:27:00,72.1,69.4,29.95,SSE,150,0.0,0.0,91,0.00,,,0.00,meteohub,2013-07-04 10:27:00,
2013-07-04 06:32:00,72.1,69.4,29.96,SSE,150,0.0,0.0,91,0.00,,,0.00,meteohub,2013-07-04 10:32:00,
2013-07-04 06:37:00,72.1,69.4,29.95,SSE,150,0.0,0.0,91,0.00,,,0.00,meteohub,2013-07-04 10:37:00,
2013-07-04 06:42:00,72.1,69.4,29.95,SSE,150,0.0,0.0,91,0.00,,,0.00,meteohub,2013-07-04 10:42:00,
2013-07-04 06:47:00,72.1,69.4,29.95,SSE,150,0.0,0.0,91,0.00,,,0.00,meteohub,2013-07-04 10:47:00,
2013-07-04 06:52:00,72.1,69.6,29.95,SSE,150,0.0,0.0,92,0.00,,,0.00,meteohub,2013-07-04 10:52:00,
2013-07-04 06:58:00,72.1,69.6,29.94,SSE,150,0.0,0.0,92,0.00,,,0.00,meteohub,2013-07-04 10:58:00,
2013-07-04 07:03:00,72.3,69.6,29.95,SSE,150,0.0,0.0,91,0.00,,,0.00,meteohub,2013-07-04 11:03:00,
2013-07-04 07:08:00,72.3,69.6,29.94,SSE,150,0.0,0.0,91,0.00,,,0.00,meteohub,2013-07-04 11:08:00,
2013-07-04 07:13:00,72.3,69.6,29.94,SSE,150,0.0,0.0,91,0.00,,,0.00,meteohub,2013-07-04 11:13:00,
2013-07-04 07:18:00,72.3,69.6,29.94,SSE,150,0.0,0.0,91,0.00,,,0.00,meteohub,2013-07-04 11:18:00,
2013-07-04 07:23:00,72.1,69.4,29.94,SSE,150,0.0,0.0,91,0.00,,,0.00,meteohub,2013-07-04 11:23:00,
2013-07-04 07:28:00,72.1,69.4,29.94,SSE,150,0.0,0.0,91,0.00,,,0.00,meteohub,2013-07-04 11:28:00,
2013-07-04 07:33:00,72.1,69.4,29.94,SSE,150,0.0,0.0,91,0.00,,,0.00,meteohub,2013-07-04 11:33:00,
2013-07-04 07:38:00,72.1,69.4,29.94,SSE,150,0.0,0.0,91,0.00,,,0.00,meteohub,2013-07-04 11:38:00,
2013-07-04 07:43:00,72.1,69.4,29.95,SSE,150,0.0,0.0,91,0.00,,,0.00,meteohub,2013-07-04 11:43:00,
2013-07-04 07:48:00,72.1,69.4,29.95,SSE,150,0.0,0.0,91,0.00,,,0.00,meteohub,2013-07-04 11:48:00,
2013-07-04 07:53:00,72.1,69.6,29.95,SSE,150,0.0,0.0,92,0.00,,,0.00,meteohub,2013-07-04 11:53:00,
2013-07-04 07:58:00,72.1,69.6,29.95,SSE,150,0.0,0.0,92,0.00,,,0.00,meteohub,2013-07-04 11:58:00,
2013-07-04 08:03:00,72.3,69.8,29.94,SSE,150,0.0,0.0,92,0.00,,,0.00,meteohub,2013-07-04 12:03:00,
2013-07-04 08:08:00,72.5,70.0,29.94,SSE,150,0.0,0.0,92,0.00,,,0.00,meteohub,2013-07-04 12:08:00,
2013-07-04 08:13:00,72.9,70.3,29.95,SSE,150,0.0,0.0,92,0.00,,,0.00,meteohub,2013-07-04 12:13:00,
2013-07-04 08:18:00,73.2,70.5,29.95,SSE,150,0.0,1.0,91,0.00,,,0.00,meteohub,2013-07-04 12:18:00,
2013-07-04 08:23:00,73.6,70.7,29.95,SSE,150,0.0,1.0,91,0.00,,,0.00,meteohub,2013-07-04 12:23:00,
2013-07-04 08:29:00,73.9,70.9,29.95,SSE,150,0.0,1.0,90,0.00,,,0.00,meteohub,2013-07-04 12:29:00,
2013-07-04 08:34:00,74.5,71.1,29.95,SSE,150,0.0,0.0,89,0.00,,,0.00,meteohub,2013-07-04 12:34:00,
2013-07-04 08:39:00,74.8,71.4,29.95,SSE,150,0.0,0.0,89,0.00,,,0.00,meteohub,2013-07-04 12:39:00,
2013-07-04 08:44:00,75.4,71.6,29.95,SSE,150,0.0,0.0,88,0.00,,,0.00,meteohub,2013-07-04 12:44:00,
2013-07-04 08:49:00,75.7,71.6,29.96,SSE,150,0.0,0.0,87,0.00,,,0.00,meteohub,2013-07-04 12:49:00,
2013-07-04 08:54:00,76.1,71.6,29.96,SSE,150,0.0,0.0,86,0.00,,,0.00,meteohub,2013-07-04 12:54:00,
2013-07-04 08:59:00,76.3,71.8,29.96,SSE,150,0.0,0.0,86,0.00,,,0.00,meteohub,2013-07-04 12:59:00,
2013-07-04 09:04:00,75.9,71.4,29.96,SSE,150,0.0,0.0,86,0.00,,,0.00,meteohub,2013-07-04 13:04:00,
2013-07-04 09:09:00,75.9,71.4,29.96,SSE,150,0.0,2.0,86,0.00,,,0.00,meteohub,2013-07-04 13:09:00,
2013-07-04 09:14:00,76.1,71.6,29.96,SSE,150,0.0,2.0,86,0.00,,,0.00,meteohub,2013-07-04 13:14:00,
2013-07-04 09:19:00,76.6,72.1,29.96,SSE,150,0.0,2.0,86,0.00,,,0.00,meteohub,2013-07-04 13:19:00,
2013-07-04 09:24:00,77.4,72.5,29.96,SSE,150,0.0,0.0,85,0.00,,,0.00,meteohub,2013-07-04 13:24:00,
2013-07-04 09:29:00,77.9,72.7,29.96,SSE,150,0.0,0.0,84,0.00,,,0.00,meteohub,2013-07-04 13:29:00,
2013-07-04 09:34:00,78.1,72.5,29.96,South,181,0.0,0.0,83,0.00,,,0.00,meteohub,2013-07-04 13:34:00,
2013-07-04 09:39:00,78.3,72.7,29.96,South,175,0.0,1.0,83,0.00,,,0.00,meteohub,2013-07-04 13:39:00,
2013-07-04 09:44:00,78.8,73.2,29.96,South,175,0.0,1.0,83,0.00,,,0.00,meteohub,2013-07-04 13:44:00,
2013-07-04 09:50:00,79.3,73.4,29.96,South,178,0.0,1.0,82,0.00,,,0.00,meteohub,2013-07-04 13:50:00,
2013-07-04 09:55:00,79.3,73.4,29.96,South,178,0.0,0.0,82,0.00,,,0.00,meteohub,2013-07-04 13:55:00,
2013-07-04 10:00:00,79.7,73.8,29.96,NE,38,0.0,4.0,82,0.00,,,0.00,meteohub,2013-07-04 14:00:00,
2013-07-04 10:05:00,80.2,73.9,29.96,SE,140,0.0,0.0,81,0.00,,,0.00,meteohub,2013-07-04 14:05:00,
2013-07-04 10:10:00,80.1,73.4,29.96,SE,145,0.0,1.0,80,0.00,,,0.00,meteohub,2013-07-04 14:10:00,
2013-07-04 10:15:00,79.7,73.4,29.96,SSE,147,0.0,1.0,81,0.00,,,0.00,meteohub,2013-07-04 14:15:00,
2013-07-04 10:20:00,79.9,73.9,29.96,SSE,147,0.0,1.0,82,0.00,,,0.00,meteohub,2013-07-04 14:20:00,
2013-07-04 10:25:00,80.6,74.7,29.96,SSE,147,0.0,1.0,82,0.00,,,0.00,meteohub,2013-07-04 14:25:00,
2013-07-04 10:30:00,81.3,74.1,29.96,SSE,147,0.0,0.0,79,0.00,,,0.00,meteohub,2013-07-04 14:30:00,
2013-07-04 10:35:00,81.9,74.7,29.96,SSE,147,0.0,0.0,79,0.00,,,0.00,meteohub,2013-07-04 14:35:00,
2013-07-04 10:40:00,82.0,74.5,29.96,SSE,148,0.0,0.0,78,0.00,,,0.00,meteohub,2013-07-04 14:40:00,
2013-07-04 10:45:00,81.1,73.6,29.97,SE,146,0.0,8.0,78,0.00,,,0.00,meteohub,2013-07-04 14:45:00,
2013-07-04 10:50:00,81.0,74.7,29.97,SE,140,0.0,8.0,81,0.00,,,0.00,meteohub,2013-07-04 14:50:00,
2013-07-04 10:55:00,81.3,74.1,29.96,SSE,159,0.0,8.0,79,0.00,,,0.00,meteohub,2013-07-04 14:55:00,
2013-07-04 11:00:00,81.9,74.7,29.97,SSW,199,0.0,6.0,79,0.00,,,0.00,meteohub,2013-07-04 15:00:00,
2013-07-04 11:05:00,82.8,75.2,29.96,NW,315,0.0,5.0,78,0.00,,,0.00,meteohub,2013-07-04 15:05:00,
2013-07-04 11:10:00,83.7,74.8,29.97,NE,53,0.0,5.0,75,0.00,,,0.00,meteohub,2013-07-04 15:10:00,
2013-07-04 11:16:00,84.2,75.0,29.96,SE,145,0.0,1.0,74,0.00,,,0.00,meteohub,2013-07-04 15:16:00,
2013-07-04 11:21:00,84.6,74.5,29.96,NNW,338,0.0,1.0,72,0.00,,,0.00,meteohub,2013-07-04 15:21:00,
2013-07-04 11:26:00,84.9,74.5,29.96,SSE,163,0.0,1.0,71,0.00,,,0.00,meteohub,2013-07-04 15:26:00,
2013-07-04 11:31:00,84.9,74.8,29.96,SE,136,0.0,1.0,72,0.00,,,0.00,meteohub,2013-07-04 15:31:00,
2013-07-04 11:36:00,85.6,74.7,29.96,NW,324,0.0,4.0,70,0.00,,,0.00,meteohub,2013-07-04 15:36:00,
2013-07-04 11:41:00,85.8,74.8,29.96,WNW,290,0.0,4.0,70,0.00,,,0.00,meteohub,2013-07-04 15:41:00,
2013-07-04 11:46:00,86.4,75.4,29.96,WNW,292,0.0,4.0,70,0.00,,,0.00,meteohub,2013-07-04 15:46:00,
2013-07-04 11:51:00,86.5,74.3,29.96,NW,317,0.0,1.0,67,0.00,,,0.00,meteohub,2013-07-04 15:51:00,
2013-07-04 11:56:00,87.1,75.2,29.96,NW,316,0.0,4.0,68,0.00,,,0.00,meteohub,2013-07-04 15:56:00,
2013-07-04 12:01:00,88.0,75.2,29.96,NNW,344,0.0,4.0,66,0.00,,,0.00,meteohub,2013-07-04 16:01:00,
2013-07-04 12:06:00,88.2,75.4,29.96,ESE,112,0.0,4.0,66,0.00,,,0.00,meteohub,2013-07-04 16:06:00,
2013-07-04 12:11:00,88.2,74.8,29.96,North,0,0.0,2.0,65,0.00,,,0.00,meteohub,2013-07-04 16:11:00,
2013-07-04 12:16:00,88.3,75.6,29.96,NW,309,0.0,2.0,66,0.00,,,0.00,meteohub,2013-07-04 16:16:00,
2013-07-04 12:21:00,88.3,74.7,29.96,NNW,337,0.0,2.0,64,0.00,,,0.00,meteohub,2013-07-04 16:21:00,
2013-07-04 12:26:00,88.3,74.7,29.96,SSE,167,0.0,1.0,64,0.00,,,0.00,meteohub,2013-07-04 16:26:00,
2013-07-04 12:31:00,87.4,74.7,29.96,NNW,347,0.0,7.0,66,0.00,,,0.00,meteohub,2013-07-04 16:31:00,
2013-07-04 12:37:00,87.8,75.4,29.96,NNE,24,0.0,7.0,67,0.00,,,0.00,meteohub,2013-07-04 16:37:00,
2013-07-04 12:42:00,88.0,75.2,29.96,NW,304,0.0,7.0,66,0.00,,,0.00,meteohub,2013-07-04 16:42:00,
2013-07-04 12:47:00,87.8,75.0,29.97,NW,304,0.0,4.0,66,0.00,,,0.00,meteohub,2013-07-04 16:47:00,
2013-07-04 12:52:00,88.2,75.4,29.97,NW,310,0.0,4.0,66,0.00,,,0.00,meteohub,2013-07-04 16:52:00,
2013-07-04 12:57:00,88.2,74.8,29.97,West,271,0.0,4.0,65,0.00,,,0.00,meteohub,2013-07-04 16:57:00,
2013-07-04 13:02:00,88.2,74.5,29.97,NW,306,0.0,1.0,64,0.00,,,0.00,meteohub,2013-07-04 17:02:00,
2013-07-04 13:07:00,88.3,75.0,29.97,NW,308,0.0,1.0,65,0.00,,,0.00,meteohub,2013-07-04 17:07:00,
2013-07-04 13:12:00,88.9,75.2,29.97,NW,323,0.0,6.0,64,0.00,,,0.00,meteohub,2013-07-04 17:12:00,
2013-07-04 13:17:00,89.4,74.7,29.97,ENE,78,0.0,6.0,62,0.00,,,0.00,meteohub,2013-07-04 17:17:00,
2013-07-04 13:22:00,89.8,74.5,29.97,ENE,77,0.0,6.0,61,0.00,,,0.00,meteohub,2013-07-04 17:22:00,
2013-07-04 13:27:00,89.4,75.2,29.97,ESE,115,0.0,4.0,63,0.00,,,0.00,meteohub,2013-07-04 17:27:00,
2013-07-04 13:32:00,89.4,74.7,29.96,ESE,111,0.0,4.0,62,0.00,,,0.00,meteohub,2013-07-04 17:32:00,
2013-07-04 13:37:00,88.9,74.7,29.96,SSW,202,0.0,5.0,63,0.00,,,0.00,meteohub,2013-07-04 17:37:00,
2013-07-04 13:42:00,88.9,74.1,29.96,ESE,110,2.0,5.0,62,0.00,,,0.00,meteohub,2013-07-04 17:42:00,
2013-07-04 13:47:00,89.1,75.2,29.96,ENE,70,0.0,8.0,64,0.00,,,0.00,meteohub,2013-07-04 17:47:00,
2013-07-04 13:52:00,89.8,74.5,29.96,WNW,282,0.0,8.0,61,0.00,,,0.00,meteohub,2013-07-04 17:52:00,
2013-07-04 13:57:00,90.1,74.8,29.96,NE,42,0.0,8.0,61,0.00,,,0.00,meteohub,2013-07-04 17:57:00,
2013-07-04 14:02:00,91.0,74.1,29.96,SSE,167,4.0,6.0,58,0.00,,,0.00,meteohub,2013-07-04 18:02:00,
2013-07-04 14:07:00,90.7,74.3,29.96,NE,53,0.0,7.0,59,0.00,,,0.00,meteohub,2013-07-04 18:07:00,
2013-07-04 14:12:00,91.2,74.8,29.96,NW,319,0.0,7.0,59,0.00,,,0.00,meteohub,2013-07-04 18:12:00,
2013-07-04 14:17:00,92.3,74.8,29.96,NNW,333,5.0,7.0,57,0.00,,,0.00,meteohub,2013-07-04 18:17:00,
2013-07-04 14:22:00,92.7,74.7,29.96,North,355,0.0,5.0,56,0.00,,,0.00,meteohub,2013-07-04 18:22:00,
2013-07-04 14:27:00,92.5,73.4,29.95,NNW,340,0.0,5.0,54,0.00,,,0.00,meteohub,2013-07-04 18:27:00,
2013-07-04 14:32:00,92.1,74.1,29.95,North,350,0.0,5.0,56,0.00,,,0.00,meteohub,2013-07-04 18:32:00,
2013-07-04 14:37:00,91.9,73.9,29.95,NW,317,0.0,4.0,56,0.00,,,0.00,meteohub,2013-07-04 18:37:00,
2013-07-04 14:42:00,91.8,74.3,29.95,NW,323,0.0,4.0,57,0.00,,,0.00,meteohub,2013-07-04 18:42:00,
2013-07-04 14:47:00,91.8,73.8,29.94,ENE,57,0.0,1.0,56,0.00,,,0.00,meteohub,2013-07-04 18:47:00,
2013-07-04 14:52:00,91.2,73.4,29.94,NE,49,0.0,2.0,56,0.00,,,0.00,meteohub,2013-07-04 18:52:00,
2013-07-04 14:57:00,91.0,74.1,29.94,NNW,328,0.0,2.0,58,0.00,,,0.00,meteohub,2013-07-04 18:57:00,
2013-07-04 15:02:00,90.9,74.1,29.94,NNW,331,0.0,2.0,58,0.00,,,0.00,meteohub,2013-07-04 19:02:00,
2013-07-04 15:07:00,91.2,74.8,29.94,ENE,64,0.0,1.0,59,0.00,,,0.00,meteohub,2013-07-04 19:07:00,
2013-07-04 15:12:00,91.9,74.5,29.94,NE,34,0.0,1.0,57,0.00,,,0.00,meteohub,2013-07-04 19:12:00,
2013-07-04 15:17:00,92.8,75.4,29.94,North,11,0.0,1.0,57,0.00,,,0.00,meteohub,2013-07-04 19:17:00,
2013-07-04 15:22:00,93.0,75.0,29.94,North,0,0.0,5.0,56,0.00,,,0.00,meteohub,2013-07-04 19:22:00,
2013-07-04 15:27:00,93.0,73.9,29.94,East,82,0.0,5.0,54,0.00,,,0.00,meteohub,2013-07-04 19:27:00,
2013-07-04 15:32:00,92.5,73.9,29.93,WSW,256,0.0,5.0,55,0.00,,,0.00,meteohub,2013-07-04 19:32:00,
2013-07-04 15:38:00,92.7,74.1,29.93,SE,140,0.0,5.0,55,0.00,,,0.00,meteohub,2013-07-04 19:38:00,
2013-07-04 15:43:00,92.1,74.7,29.92,SSE,165,8.0,8.0,57,0.00,,,0.00,meteohub,2013-07-04 19:43:00,
2013-07-04 15:48:00,90.3,74.5,29.93,SSE,159,2.0,8.0,60,0.00,,,0.00,meteohub,2013-07-04 19:48:00,
2013-07-04 15:53:00,89.4,74.7,29.93,WNW,296,0.0,9.0,62,0.00,,,0.00,meteohub,2013-07-04 19:53:00,
2013-07-04 15:58:00,90.0,74.1,29.92,SE,132,4.0,9.0,60,0.00,,,0.00,meteohub,2013-07-04 19:58:00,
2013-07-04 16:03:00,90.7,74.8,29.93,SE,144,0.0,9.0,60,0.00,,,0.00,meteohub,2013-07-04 20:03:00,
2013-07-04 16:08:00,90.1,74.8,29.92,NNE,15,0.0,6.0,61,0.00,,,0.00,meteohub,2013-07-04 20:08:00,
2013-07-04 16:13:00,89.8,74.1,29.92,SE,142,0.0,7.0,60,0.00,,,0.00,meteohub,2013-07-04 20:13:00,
2013-07-04 16:18:00,89.2,73.9,29.92,SSE,151,0.0,11.0,61,0.00,,,0.00,meteohub,2013-07-04 20:18:00,
2013-07-04 16:23:00,88.7,73.9,29.92,ENE,59,0.0,11.0,62,0.00,,,0.00,meteohub,2013-07-04 20:23:00,
2013-07-04 16:28:00,88.9,74.1,29.92,SE,138,0.0,12.0,62,0.00,,,0.00,meteohub,2013-07-04 20:28:00,
2013-07-04 16:33:00,88.9,73.8,29.92,SSE,157,0.0,12.0,61,0.00,,,0.00,meteohub,2013-07-04 20:33:00,
2013-07-04 16:38:00,88.7,73.9,29.92,SSW,193,0.0,12.0,62,0.00,,,0.00,meteohub,2013-07-04 20:38:00,
2013-07-04 16:43:00,89.1,73.9,29.92,South,186,0.0,2.0,61,0.00,,,0.00,meteohub,2013-07-04 20:43:00,
2013-07-04 16:48:00,89.6,74.3,29.92,South,171,4.0,4.0,61,0.00,,,0.00,meteohub,2013-07-04 20:48:00,
2013-07-04 16:53:00,89.4,73.8,29.91,South,180,0.0,4.0,60,0.00,,,0.00,meteohub,2013-07-04 20:53:00,
2013-07-04 16:58:00,90.0,73.8,29.91,SW,221,0.0,4.0,59,0.00,,,0.00,meteohub,2013-07-04 20:58:00,
2013-07-04 17:04:00,90.7,73.9,29.91,NE,48,0.0,4.0,58,0.00,,,0.00,meteohub,2013-07-04 21:04:00,
2013-07-04 17:09:00,91.2,74.3,29.91,ESE,115,0.0,2.0,58,0.00,,,0.00,meteohub,2013-07-04 21:09:00,
2013-07-04 17:14:00,91.4,74.5,29.91,NE,46,0.0,2.0,58,0.00,,,0.00,meteohub,2013-07-04 21:14:00,
2013-07-04 17:19:00,92.1,74.7,29.91,WSW,240,0.0,2.0,57,0.00,,,0.00,meteohub,2013-07-04 21:19:00,
2013-07-04 17:24:00,92.5,74.5,29.91,WSW,246,0.0,2.0,56,0.00,,,0.00,meteohub,2013-07-04 21:24:00,
2013-07-04 17:29:00,92.7,74.1,29.91,South,186,0.0,2.0,55,0.00,,,0.00,meteohub,2013-07-04 21:29:00,
2013-07-04 17:34:00,92.1,72.5,29.91,NNW,329,0.0,2.0,53,0.00,,,0.00,meteohub,2013-07-04 21:34:00,
2013-07-04 17:39:00,90.9,72.5,29.91,ESE,107,0.0,2.0,55,0.00,,,0.00,meteohub,2013-07-04 21:39:00,
2013-07-04 17:44:00,90.1,72.9,29.90,SE,137,0.0,9.0,57,0.00,,,0.00,meteohub,2013-07-04 21:44:00,
2013-07-04 17:49:00,90.0,73.2,29.90,East,98,0.0,9.0,58,0.00,,,0.00,meteohub,2013-07-04 21:49:00,
2013-07-04 17:54:00,90.0,72.7,29.90,SSE,168,0.0,9.0,57,0.00,,,0.00,meteohub,2013-07-04 21:54:00,
2013-07-04 17:59:00,90.0,72.7,29.90,SE,143,0.0,9.0,57,0.00,,,0.00,meteohub,2013-07-04 21:59:00,
2013-07-04 18:04:00,90.0,72.7,29.90,SE,145,5.0,8.0,57,0.00,,,0.00,meteohub,2013-07-04 22:04:00,
2013-07-04 18:09:00,90.0,73.2,29.90,South,169,0.0,8.0,58,0.00,,,0.00,meteohub,2013-07-04 22:09:00,
2013-07-04 18:14:00,90.0,73.2,29.90,ENE,64,0.0,8.0,58,0.00,,,0.00,meteohub,2013-07-04 22:14:00,
2013-07-04 18:19:00,90.1,72.9,29.90,South,176,1.0,8.0,57,0.00,,,0.00,meteohub,2013-07-04 22:19:00,
2013-07-04 18:24:00,89.8,73.0,29.90,South,171,0.0,5.0,58,0.00,,,0.00,meteohub,2013-07-04 22:24:00,
2013-07-04 18:29:00,90.0,73.2,29.90,South,171,1.0,1.0,58,0.00,,,0.00,meteohub,2013-07-04 22:29:00,
2013-07-04 18:35:00,90.0,73.8,29.91,South,171,0.0,5.0,59,0.00,,,0.00,meteohub,2013-07-04 22:35:00,
2013-07-04 18:40:00,90.0,73.2,29.90,SSE,155,0.0,5.0,58,0.00,,,0.00,meteohub,2013-07-04 22:40:00,
2013-07-04 18:45:00,90.0,72.7,29.91,SE,127,0.0,1.0,57,0.00,,,0.00,meteohub,2013-07-04 22:45:00,
2013-07-04 18:50:00,89.8,72.5,29.91,South,172,0.0,1.0,57,0.00,,,0.00,meteohub,2013-07-04 22:50:00,
2013-07-04 18:55:00,89.4,73.2,29.91,South,172,0.0,1.0,59,0.00,,,0.00,meteohub,2013-07-04 22:55:00,
2013-07-04 19:00:00,89.4,73.8,29.90,South,172,0.0,1.0,60,0.00,,,0.00,meteohub,2013-07-04 23:00:00,
2013-07-04 19:05:00,89.4,73.2,29.90,South,181,0.0,0.0,59,0.00,,,0.00,meteohub,2013-07-04 23:05:00,
2013-07-04 19:10:00,89.2,73.0,29.90,South,178,0.0,3.0,59,0.00,,,0.00,meteohub,2013-07-04 23:10:00,
2013-07-04 19:15:00,88.9,73.2,29.90,South,178,0.0,3.0,60,0.00,,,0.00,meteohub,2013-07-04 23:15:00,
2013-07-04 19:20:00,88.9,73.2,29.91,South,178,0.0,0.0,60,0.00,,,0.00,meteohub,2013-07-04 23:20:00,
2013-07-04 19:25:00,88.7,72.5,29.91,South,178,0.0,0.0,59,0.00,,,0.00,meteohub,2013-07-04 23:25:00,
2013-07-04 19:30:00,88.5,71.8,29.91,SSE,161,0.0,1.0,58,0.00,,,0.00,meteohub,2013-07-04 23:30:00,
2013-07-04 19:35:00,88.5,72.9,29.91,SSE,160,0.0,1.0,60,0.00,,,0.00,meteohub,2013-07-04 23:35:00,
2013-07-04 19:40:00,88.7,72.5,29.91,SSE,160,0.0,1.0,59,0.00,,,0.00,meteohub,2013-07-04 23:40:00,
2013-07-04 19:45:00,88.9,72.7,29.91,SSE,160,0.0,0.0,59,0.00,,,0.00,meteohub,2013-07-04 23:45:00,
2013-07-04 19:50:00,88.7,73.0,29.92,SE,132,0.0,2.0,60,0.00,,,0.00,meteohub,2013-07-04 23:50:00,
2013-07-04 19:55:00,88.9,72.7,29.91,SE,131,0.0,2.0,59,0.00,,,0.00,meteohub,2013-07-04 23:55:00,
2013-07-04 20:01:00,88.5,72.3,29.91,SE,134,0.0,0.0,59,0.00,,,0.00,meteohub,2013-07-05 00:01:00,
2013-07-04 20:06:00,88.5,73.8,29.92,SE,134,0.0,0.0,62,0.00,,,0.00,meteohub,2013-07-05 00:06:00,
2013-07-04 20:11:00,88.5,73.8,29.92,SE,134,0.0,0.0,62,0.00,,,0.00,meteohub,2013-07-05 00:11:00,
2013-07-04 20:16:00,88.3,74.1,29.91,SE,134,0.0,0.0,63,0.00,,,0.00,meteohub,2013-07-05 00:16:00,
2013-07-04 20:21:00,88.0,73.8,29.92,SE,134,0.0,0.0,63,0.00,,,0.00,meteohub,2013-07-05 00:21:00,
2013-07-04 20:26:00,88.0,74.3,29.92,SE,134,0.0,0.0,64,0.00,,,0.00,meteohub,2013-07-05 00:26:00,
2013-07-04 20:31:00,87.8,73.6,29.92,SE,134,0.0,0.0,63,0.00,,,0.00,meteohub,2013-07-05 00:31:00,
2013-07-04 20:36:00,87.6,73.4,29.92,SE,134,0.0,0.0,63,0.00,,,0.00,meteohub,2013-07-05 00:36:00,
2013-07-04 20:41:00,87.6,73.0,29.92,SE,134,0.0,0.0,62,0.00,,,0.00,meteohub,2013-07-05 00:41:00,
2013-07-04 20:46:00,87.6,73.4,29.92,SE,134,0.0,0.0,63,0.00,,,0.00,meteohub,2013-07-05 00:46:00,
2013-07-04 20:51:00,87.1,72.9,29.93,SE,134,0.0,0.0,63,0.00,,,0.00,meteohub,2013-07-05 00:51:00,
2013-07-04 20:56:00,86.4,73.6,29.93,SSW,211,0.0,3.0,66,0.00,,,0.00,meteohub,2013-07-05 00:56:00,
2013-07-04 21:01:00,85.6,74.3,29.93,SSE,157,0.0,5.0,69,0.00,,,0.00,meteohub,2013-07-05 01:01:00,
2013-07-04 21:06:00,84.9,74.5,29.93,WSW,256,0.0,5.0,71,0.00,,,0.00,meteohub,2013-07-05 01:06:00,
2013-07-04 21:11:00,84.4,74.8,29.93,WSW,256,0.0,5.0,73,0.00,,,0.00,meteohub,2013-07-05 01:11:00,
2013-07-04 21:16:00,83.8,74.3,29.93,WSW,254,0.0,2.0,73,0.00,,,0.00,meteohub,2013-07-05 01:16:00,
2013-07-04 21:21:00,83.5,74.3,29.94,WSW,254,0.0,0.0,74,0.00,,,0.00,meteohub,2013-07-05 01:21:00,
2013-07-04 21:27:00,83.1,73.9,29.94,WSW,254,0.0,0.0,74,0.00,,,0.00,meteohub,2013-07-05 01:27:00,
2013-07-04 21:32:00,82.9,74.1,29.94,WSW,251,0.0,0.0,75,0.00,,,0.00,meteohub,2013-07-05 01:32:00,
2013-07-04 21:37:00,82.8,73.9,29.94,WSW,251,0.0,0.0,75,0.00,,,0.00,meteohub,2013-07-05 01:37:00,
2013-07-04 21:42:00,82.6,74.3,29.94,WSW,251,0.0,0.0,76,0.00,,,0.00,meteohub,2013-07-05 01:42:00,
2013-07-04 21:47:00,82.2,74.3,29.94,WSW,251,0.0,0.0,77,0.00,,,0.00,meteohub,2013-07-05 01:47:00,
2013-07-04 21:52:00,82.2,74.3,29.94,WSW,251,0.0,0.0,77,0.00,,,0.00,meteohub,2013-07-05 01:52:00,
2013-07-04 21:57:00,82.2,74.3,29.94,WSW,251,0.0,0.0,77,0.00,,,0.00,meteohub,2013-07-05 01:57:00,
2013-07-04 22:02:00,82.2,74.3,29.94,WSW,251,0.0,0.0,77,0.00,,,0.00,meteohub,2013-07-05 02:02:00,
2013-07-04 22:07:00,82.2,74.3,29.94,WSW,251,0.0,0.0,77,0.00,,,0.00,meteohub,2013-07-05 02:07:00,
2013-07-04 22:12:00,82.2,74.3,29.94,WSW,251,0.0,0.0,77,0.00,,,0.00,meteohub,2013-07-05 02:12:00,
2013-07-04 22:17:00,82.2,74.3,29.94,WSW,251,0.0,0.0,77,0.00,,,0.00,meteohub,2013-07-05 02:17:00,
2013-07-04 22:22:00,82.2,74.7,29.94,WSW,251,0.0,0.0,78,0.00,,,0.00,meteohub,2013-07-05 02:22:00,
2013-07-04 22:27:00,82.2,74.7,29.94,WSW,251,0.0,0.0,78,0.00,,,0.00,meteohub,2013-07-05 02:27:00,
2013-07-04 22:32:00,82.0,74.1,29.94,North,11,0.0,0.0,77,0.00,,,0.00,meteohub,2013-07-05 02:32:00,
2013-07-04 22:37:00,82.0,74.5,29.95,North,11,0.0,3.0,78,0.00,,,0.00,meteohub,2013-07-05 02:37:00,
2013-07-04 22:42:00,81.9,74.3,29.95,North,11,0.0,3.0,78,0.00,,,0.00,meteohub,2013-07-05 02:42:00,
2013-07-04 22:47:00,81.9,74.3,29.95,North,11,0.0,3.0,78,0.00,,,0.00,meteohub,2013-07-05 02:47:00,
2013-07-04 22:52:00,81.9,74.3,29.96,North,11,0.0,0.0,78,0.00,,,0.00,meteohub,2013-07-05 02:52:00,
2013-07-04 22:57:00,81.7,74.1,29.95,North,11,0.0,0.0,78,0.00,,,0.00,meteohub,2013-07-05 02:57:00,
2013-07-04 23:02:00,81.5,73.9,29.95,North,11,0.0,0.0,78,0.00,,,0.00,meteohub,2013-07-05 03:02:00,
2013-07-04 23:07:00,81.3,73.8,29.96,North,11,0.0,0.0,78,0.00,,,0.00,meteohub,2013-07-05 03:07:00,
2013-07-04 23:12:00,81.3,74.1,29.96,North,11,0.0,0.0,79,0.00,,,0.00,meteohub,2013-07-05 03:12:00,
2013-07-04 23:17:00,81.0,73.8,29.96,North,11,0.0,0.0,79,0.00,,,0.00,meteohub,2013-07-05 03:17:00,
2013-07-04 23:22:00,80.8,73.9,29.96,North,11,0.0,0.0,80,0.00,,,0.00,meteohub,2013-07-05 03:22:00,
2013-07-04 23:27:00,80.4,73.8,29.96,North,11,0.0,0.0,80,0.00,,,0.00,meteohub,2013-07-05 03:27:00,
2013-07-04 23:32:00,80.4,74.1,29.96,North,11,0.0,0.0,81,0.00,,,0.00,meteohub,2013-07-05 03:32:00,
2013-07-04 23:38:00,80.2,73.9,29.96,North,11,0.0,0.0,81,0.00,,,0.00,meteohub,2013-07-05 03:38:00,
2013-07-04 23:43:00,80.2,73.9,29.96,North,11,0.0,0.0,81,0.00,,,0.00,meteohub,2013-07-05 03:43:00,
2013-07-04 23:48:00,80.2,73.9,29.96,North,11,0.0,0.0,81,0.00,,,0.00,meteohub,2013-07-05 03:48:00,
2013-07-04 23:53:00,80.1,73.8,29.96,North,11,0.0,0.0,81,0.00,,,0.00,meteohub,2013-07-05 03:53:00,
2013-07-04 23:58:00,80.1,73.8,29.96,North,11,0.0,0.0,81,0.00,,,0.00,meteohub,2013-07-05 03:58:00,